Chillicothe, MO

4:21 AM CST on February 28, 2017 (GMT -0600)
Chillicothe

Weather History for KCDJ - April, 2013

Change the Weather History Date:

Tuesday, April 2, 2013

  Actual Average (KIRK) Record (KIRK)
Temperature  
Mean Temperature 38 °F -  
Max Temperature 51 °F 56 °F 86 °F (2012)
Min Temperature 24 °F 35 °F 17 °F (2013)
Degree Days  
Heating Degree Days 28    
Moisture  
Dew Point 21 °F    
Average Humidity 55    
Maximum Humidity 81    
Minimum Humidity 27    
Precipitation  
Precipitation 0.00 in - - ()
Sea Level Pressure  
Sea Level Pressure 30.36 in    
Wind  
Wind Speed 3 mph (North)    
Max Wind Speed 8 mph    
Max Gust Speed -    
Averages and records for this station are not official NWS values.
T = Trace of Precipitation, MM = Missing Value Source: NWS Daily Summary

Daily Weather History Graph

Daily Weather History Graph

Search for Another Location

Airport or City:

Trip Planner

Search our weather history database for the weather conditions in past years. The results will help you decide how hot, cold, wet, or windy it might be!

Date:

Astronomy

Apr. 02, 2013 Rise Set
Actual Time 6:56 AM CDT 7:39 PM CDT
Civil Twilight 6:29 AM CDT 8:07 PM CDT
Nautical Twilight 5:56 AM CDT 8:39 PM CDT
Astronomical Twilight 5:23 AM CDT 9:12 PM CDT
Moon 1:44 AM CDT (4/2) 11:48 AM CDT (4/2)
Length of Visible Light 13h 38m
Length of Day
12h 43m
Waning Gibbous, 55% of the Moon is Illuminated
Apr 2
Waning Gibbous
Apr 2
Last Quarter
Apr 10
New
Apr 18
First Quarter
Apr 25
Full

Hourly Weather History & Observations

Time (CDT) Temp. Windchill Dew Point Humidity Pressure Visibility Wind Dir Wind Speed Gust Speed Precip Events Conditions
12:52 AM 30.0 °F 25.2 °F 18.0 °F 61% 30.36 in - NNW 4.6 mph - N/A   Unknown
1:52 AM 28.9 °F 23.9 °F 18.0 °F 64% 30.35 in - North 4.6 mph - N/A   Unknown
2:52 AM 28.9 °F 25.2 °F 19.0 °F 67% 30.35 in - North 3.5 mph - N/A   Unknown
3:52 AM 26.1 °F - 18.0 °F 71% 30.35 in - Calm Calm - N/A   Unknown
4:52 AM 25.0 °F - 19.0 °F 78% 30.35 in - Calm Calm - N/A   Unknown
5:52 AM 24.1 °F - 19.0 °F 81% 30.37 in - Calm Calm - N/A   Unknown
6:52 AM 24.1 °F - 19.0 °F 81% 30.37 in - Calm Calm - N/A   Unknown
7:52 AM 26.1 °F - 21.0 °F 81% 30.41 in - Calm Calm - N/A   Unknown
8:52 AM 32.0 °F 28.7 °F 21.0 °F 64% 30.42 in - South 3.5 mph - N/A   Unknown
9:52 AM 36.0 °F 33.3 °F 19.9 °F 52% 30.41 in - Variable 3.5 mph - N/A   Unknown
10:52 AM 39.0 °F 35.7 °F 21.0 °F 49% 30.41 in - Variable 4.6 mph - N/A   Unknown
11:52 AM 41.0 °F 39.0 °F 19.9 °F 43% 30.40 in - North 3.5 mph - N/A   Unknown
12:52 PM 46.0 °F 44.8 °F 24.1 °F 42% 30.38 in - Variable 3.5 mph - N/A   Unknown
1:52 PM 48.0 °F - 19.9 °F 33% 30.35 in - NNE 5.8 mph - N/A   Unknown
2:52 PM 50.0 °F - 23.0 °F 35% 30.33 in - Calm Calm - N/A   Unknown
3:52 PM 48.9 °F - 19.9 °F 32% 30.32 in - Calm Calm - N/A   Unknown
4:52 PM 51.1 °F - 18.0 °F 27% 30.31 in - NNE 5.8 mph - N/A   Unknown
5:52 PM 50.0 °F - 18.0 °F 28% 30.31 in - North 3.5 mph - N/A   Unknown
6:52 PM 48.9 °F - 17.1 °F 28% 30.32 in - NNE 4.6 mph - N/A   Unknown
7:52 PM 46.0 °F - 21.9 °F 39% 30.31 in - Calm Calm - N/A   Unknown
8:52 PM 39.0 °F - 26.1 °F 60% 30.32 in - Calm Calm - N/A   Unknown
9:52 PM 36.0 °F - 28.0 °F 73% 30.35 in - Calm Calm - N/A   Unknown
10:52 PM 34.0 °F 31.0 °F 26.1 °F 73% 30.35 in - NE 3.5 mph - N/A   Unknown
11:52 PM 37.9 °F 32.1 °F 21.9 °F 53% 30.35 in - NE 8.1 mph - N/A   Unknown